West Chatham, MA

3:57 PM EST on January 20, 2017 (GMT -0500)
Chatham Municipal

Weather History for KCQX - May, 2013

Change the Weather History Date:

Friday, May 17, 2013

  Actual Average Record
Temperature  
Mean Temperature 56 °F -  
Max Temperature 64 °F 59 °F 75 °F (2015)
Min Temperature 48 °F 45 °F 40 °F (1992)
Degree Days  
Heating Degree Days 10    
Growing Degree Days 6 (Base 50)    
Moisture  
Dew Point 43 °F    
Average Humidity 61    
Maximum Humidity 86    
Minimum Humidity 44    
Precipitation  
Precipitation 0.00 in - - ()
Sea Level Pressure  
Sea Level Pressure 30.02 in    
Wind  
Wind Speed 6 mph (North)    
Max Wind Speed 15 mph    
Max Gust Speed 23 mph    
Visibility 10 miles    
Events      
Averages and records for this station are not official NWS values.
T = Trace of Precipitation, MM = Missing Value Source: NWS Daily Summary

Daily Weather History Graph

Daily Weather History Graph

Search for Another Location

Airport or City:

Trip Planner

Search our weather history database for the weather conditions in past years. The results will help you decide how hot, cold, wet, or windy it might be!

Date:

Astronomy

May. 17, 2013 Rise Set
Actual Time 5:18 AM EDT 7:55 PM EDT
Civil Twilight 4:46 AM EDT 8:27 PM EDT
Nautical Twilight 4:06 AM EDT 9:07 PM EDT
Astronomical Twilight 3:21 AM EDT 9:52 PM EDT
Moon 11:49 AM EDT (5/17) 12:43 AM EDT (5/17)
Length of Visible Light 15h 40m
Length of Day
14h 36m
Waxing Crescent, 45% of the Moon is Illuminated
May 17
Waxing Crescent
May 18
First Quarter
May 25
Full
May 31
Last Quarter
Jun 8
New

Hourly Weather History & Observations

Time (EDT) Temp. Dew Point Humidity Pressure Visibility Wind Dir Wind Speed Gust Speed Precip Events Conditions
12:52 AM 55.0 °F 46.9 °F 74% 29.79 in 10.0 mi WSW 3.5 mph - N/A   Clear
1:52 AM 61.0 °F 46.0 °F 58% 29.80 in 10.0 mi Variable 5.8 mph - N/A   Clear
2:52 AM 57.9 °F 46.0 °F 65% 29.82 in 10.0 mi NE 6.9 mph - N/A   Clear
3:52 AM 57.0 °F 45.0 °F 64% 29.85 in 10.0 mi North 5.8 mph - N/A   Clear
4:52 AM 54.0 °F 45.0 °F 72% 29.88 in 10.0 mi North 4.6 mph - N/A   Clear
5:52 AM 52.0 °F 46.9 °F 83% 29.90 in 10.0 mi Calm Calm - N/A   Clear
6:52 AM 57.0 °F 45.0 °F 64% 29.93 in 10.0 mi NNW 8.1 mph - N/A   Clear
7:52 AM 57.9 °F 42.1 °F 56% 29.96 in 10.0 mi NNW 8.1 mph 20.7 mph N/A   Clear
8:52 AM 59.0 °F 41.0 °F 51% 29.97 in 10.0 mi NNW 9.2 mph 19.6 mph N/A   Clear
9:52 AM 57.9 °F 42.1 °F 56% 29.99 in 10.0 mi Variable 5.8 mph 23.0 mph N/A   Clear
10:52 AM 59.0 °F 42.1 °F 53% 30.01 in 10.0 mi NNW 12.7 mph 19.6 mph N/A   Clear
11:52 AM 60.1 °F 41.0 °F 49% 30.03 in 10.0 mi NNW 11.5 mph 17.3 mph N/A   Clear
12:52 PM 62.1 °F 42.1 °F 48% 30.03 in 10.0 mi NNW 10.4 mph - N/A   Clear
1:52 PM 62.1 °F 41.0 °F 46% 30.05 in 10.0 mi NNW 9.2 mph 20.7 mph N/A   Clear
2:52 PM 63.0 °F 41.0 °F 45% 30.06 in 10.0 mi Calm Calm - N/A   Clear
3:52 PM 62.1 °F 39.9 °F 44% 30.07 in 10.0 mi ENE 15.0 mph 18.4 mph N/A   Partly Cloudy
4:52 PM 60.1 °F 41.0 °F 49% 30.09 in 10.0 mi ENE 11.5 mph - N/A   Clear
5:52 PM 60.1 °F 41.0 °F 49% 30.12 in 10.0 mi NE 11.5 mph - N/A   Clear
6:52 PM 57.9 °F 42.1 °F 56% 30.14 in 10.0 mi ENE 8.1 mph - N/A   Clear
7:52 PM 55.0 °F 42.1 °F 62% 30.16 in 10.0 mi Calm Calm - N/A   Scattered Clouds
8:52 PM 52.0 °F 44.1 °F 74% 30.20 in 10.0 mi Calm Calm - N/A   Clear
9:52 PM 50.0 °F 44.1 °F 80% 30.22 in 10.0 mi Calm Calm - N/A   Clear
10:52 PM 48.9 °F 45.0 °F 86% 30.23 in 10.0 mi Calm Calm - N/A   Scattered Clouds
11:52 PM 50.0 °F 44.1 °F 80% 30.23 in 10.0 mi SW 3.5 mph - N/A   Clear